www.pogodaiklimat.ru

Погода и климат >> Архив погоды >> Россия >> Ненецкий АО >> Амдерма


АРХИВ ПОГОДЫ в Амдерме

Время (UTC), дата Ветер
(напр.,м/с)
 
Видим.   Явления Облачность Т
(С)
Тd
(С)
f
(%)
Тe
(С)
Тes
(С)
Комфортность P
(гПа)
Po
(гПа)
Тmin
(С)
Tmax
(С)
R
(мм)
R24
(мм)
S
(см)
12 17.01 В 10-12
{14}
2000 м слаб. ливневой снег 10/10 300 м
[Cb cap]
-15.1 -16.1 92 -27 -27 989.1 982.4
15 17.01 СВ 8
{12}
2000 м слаб. ливневой снег {метель} 10/10 300 м
[Cb cap]
-12.0 -12.7 95 -22 -22 985.7 979.2 -11.9 2
18 17.01 В 2 4000 м слаб. ливневой снег {метель} 10/6 300 м
[Cb cap As trans]
-11.7 -12.5 94 -16 -16 984.3 977.8
21 17.01 В 5 4000 м слаб. ливневой снег 9/5 300 м
[Cb cap Cs]
-11.1 -11.8 95 -19 -19 984.7 978.3
00 18.01 В 3 4000 м слаб. ливневой снег 10/10 300 м
[Cb cap]
-11.5 -12.3 94 -17 -17 985.1 978.6
03 18.01 СВ 3 4000 м слаб. ливневой снег 10/10 300 м
[Cb cap]
-12.2 -13.0 94 -18 -18 985.6 979.1 -12.3 1 19
06 18.01 С 2 4000 м слаб. ливневой снег 10/10 300 м
[Cb cap]
-12.5 -13.3 94 -17 -17 985.7 979.2 -12.6
09 18.01 ЮЗ 2 4000 м слаб. ливневой снег 8/6 600 м
[Cb cap Ac trans]
-14.8 -15.8 92 -20 -20 986.2 979.6
12 18.01 СЗ 2 10 км {ливн. осадки} 9/9 600 м
[Sc]
-14.9 -15.9 92 -20 -20 987.5 980.9
15 18.01 З 2 10 км в посл. час ливневой снег 3/1 600 м
[Sc Ac trans]
-15.4 -16.6 90 -20 -20 988.9 982.2 -12.2 2
18 18.01 ЮЗ 3 10 км {ливн. осадки} 3/0
[Ac trans]
-17.4 -18.7 90 -24 -24 989.5 982.8
21 18.01 СЗ 5 4000 м слаб. ливневой снег {метель} 9/9 600 м
[Cb cap]
-9.3 -9.8 96 -17 -17 989.3 982.8
00 19.01 С 6
{13}
10 км слаб. ливневой снег {метель} 9/9 600 м
[Cb cap]
-8.7 -9.2 96 -17 -17 989.7 983.3
03 19.01 СЗ 6-11
{11}
4000 м слаб. ливневой снег {метель} 9/9 600 м
[Cb cap]
-7.9 -8.3 97 -16 -16 990.4 984.0 -20.1 2 21
06 19.01 СЗ 4
{11}
10 км в посл. час ливневой снег {метель} 9/9 600 м
[Cb cap]
-8.1 -8.8 95 -15 -15 991.4 984.9
09 19.01 З 4 10 км слаб. ливневой снег 9/8 600 м
[Cb cap Ac trans]
-11.1 -12.3 91 -18 -18 993.0 986.5
12 19.01 З 2 4000 м слаб. ливневой снег 9/8 300 м
[Cb cap Ac trans]
-11.0 -12.4 89 -16 -16 994.5 987.9
15 19.01 Ю 3 4000 м слаб. ливневой снег 9/8 600 м
[Cb cap Ac trans]
-13.8 -14.7 93 -20 -20 995.9 989.3 -7.8 0.8
18 19.01 Ю 4 4000 м слаб. ливневой снег 10/10 300 м
[Cb cap]
-12.5 -13.3 94 -20 -20 996.8 990.2
21 19.01 Ю 6
{11}
10 км позёмок {ливн. осадки} 10/10 300 м
[Sc]
-10.9 -11.7 94 -20 -20 997.2 990.6
00 20.01 ЮЗ 2 10 км {ливн. осадки, метель} 10/10 300 м
[Sc]
-7.0 -7.5 96 -12 -12 998.2 991.7
03 20.01 СЗ 3 10 км 10/10 300 м
[Sc]
-6.3 -6.8 96 -12 -12 1000.2 993.7 -15.2 0.0 21
06 20.01 СЗ 2 10 км 10/10 300 м
[Sc]
-7.9 -8.3 97 -12 -12 1002.4 995.9
09 20.01 ЮЗ 2 10 км 10/10 300 м
[Sc]
-8.6 -9.4 94 -13 -13 1003.6 997.1
12 20.01 Ю 7-11
{11}
4000 м позёмок 1/1 300 м
[Sc]
-9.8 -10.3 96 -19 -19 1004.1 997.5
15 20.01 Ю 10-12
{12}
10 км позёмок 4/4 300 м
[St]
-8.5 -8.9 97 -19 -19 1004.3 997.7 -6.3
18 20.01 Ю 8-10
{12}
10 км позёмок 9/9 1000 м
[Sc]
-8.6 -9.0 97 -18 -18 1004.5 997.9
21 20.01 Ю 7
{10}
10 км позёмок 9/5 1000 м
[Sc Ac trans]
-10.3 -10.9 95 -20 -20 1004.7 998.1
00 21.01 Ю 5
{10}
10 км {метель} 9/5 1000 м
[Sc Ac trans]
-12.9 -13.6 94 -21 -21 1004.5 997.9
03 21.01 Ю 5 10 км 9/9 1000 м
[Sc]
-12.6 -13.3 94 -21 -21 1003.7 997.1 -13.3 21
06 21.01 Ю 4 10 км 9/8 600 м
[Sc Ac trans]
-13.3 -14.2 93 -21 -21 1003.0 996.3
09 21.01 Ю 3 10 км 9/8 600 м
[Sc Ac trans]
-14.2 -15.2 92 -21 -21 1002.7 996.0
12 21.01 Ю 4 4000 м слаб. ливневой снег 9/8 600 м
[Cb cap Ac trans]
-12.9 -13.7 94 -20 -20 1002.1 995.5
15 21.01 Ю 5 10 км {ливн. осадки} 9/5 1000 м
[Sc Ac trans]
-14.7 -15.7 92 -23 -23 1001.6 994.9 -12.4 0.0
18 21.01 Ю 4 10 км {ливн. осадки} 8/3 1000 м
[Sc Ac trans]
-17.7 -19.1 89 -26 -26 1001.3 994.6
21 21.01 Ю 1 10 км слаб. ливневой снег {морось} 9/5 600 м
[Cb cap Ac trans]
-18.0 -19.4 89 -21 -21 1000.6 993.8
00 22.01 СВ 2 4000 м слаб. ливневой снег 9/9 600 м
[Cb cap]
-13.3 -14.2 93 -18 -18 998.9 992.3
03 22.01 СВ 5 4000 м слаб. ливневой снег {метель} 9/9 600 м
[Cb cap]
-15.7 -17.0 90 -25 -25 997.8 991.1 -19.1 0.5 22
06 22.01 СВ 6 4000 м слаб. ливневой снег {метель} 10/6 300 м
[Cb cap Ac und]
-15.8 -17.3 88 -26 -26 996.9 990.2
09 22.01 СВ 5 4000 м слаб. ливневой снег 10/8 300 м
[Cb cap Ac und]
-16.7 -18.5 86 -26 -26 997.1 990.4
12 22.01 ЮВ 2 4000 м слаб. ливневой снег 9/6 300 м
[Cb cap Ac trans]
-19.1 -20.9 86 -25 -25 997.5 990.7
15 22.01 Ю 2 4000 м слаб. ливневой снег 9/5 300 м
[Cb cap Cs]
-21.7 -23.4 86 -28 -28 998.1 991.2 -15.6 0.4
18 22.01 Ю 4 10 км {ливн. осадки} ясно -25.2 -27.4 82 -35 -35 опасность
обморожения
998.9 992.0
21 22.01 Ю 5 10 км ясно -25.9 -28.1 82 -37 -37 опасность
обморожения
1000.4 993.4
00 23.01 Ю 6 10 км ясно -24.9 -26.9 83 -37 -37 опасность
обморожения
1002.0 995.0
03 23.01 Ю 4 10 км ясно -25.2 -27.4 82 -35 -35 опасность
обморожения
1003.4 996.4 -26.4 0.0 21
06 23.01 Ю 6 10 км позёмок 3/0
[Ac lent]
-25.6 -27.9 81 -38 -38 опасность
обморожения
1005.1 998.1
09 23.01 ЮВ 4 10 км {метель} 3/0
[Ac trans Ci fib]
-24.2 -26.1 84 -34 -34 опасность
обморожения
1006.5 999.5
12 23.01 Ю 2 10 км {метель} 6/3 600 м
[Sc Ac trans Ci fib]
-22.5 -24.3 85 -29 -29 1008.0 1001.0
15 23.01 ЮВ 2 10 км 6/3 600 м
[Sc Ac trans]
-22.2 -24.2 84 -28 -28 1009.5 1002.5 -21.8
18 23.01 ЮВ 2 10 км 9/0
[Ac trans]
-22.8 -24.9 83 -29 -29 1011.1 1004.1
21 23.01 ЮВ 2 10 км 9/4 600 м
[Sc Ac trans]
-24.1 -26.2 83 -31 -31 опасность
обморожения
1012.7 1005.7
00 24.01 Ю 2 10 км 6/3 600 м
[Sc Ac trans]
-23.7 -25.9 82 -30 -30 1014.1 1007.1
03 24.01 Ю 3 10 км 6/0
[Ac trans Ci fib]
-24.8 -27.2 80 -33 -33 опасность
обморожения
1015.3 1008.2 -25.9 22
06 24.01 Ю 3 10 км 5/0
[Ci sp]
-25.8 -28.4 79 -35 -35 опасность
обморожения
1017.0 1009.9 -26.1
09 24.01 Ю 3 10 км 5/0
[Ac trans Ci fib]
-25.6 -28.0 80 -34 -34 опасность
обморожения
1018.5 1011.4

 

Местоположение метеостанции Амдерма (Ненецкий АО, Россия): широта 69.77 долгота 61.68 высота над уровнем моря 48 м.

В архиве по умолчанию представлена погода в Амдерме за последнюю неделю. Архивные данные за месяц целиком и за предыдущие месяцы, начиная с января 2011 года, Вы можете получить, выбрав интересующий диапазон дат из раскрывающегося списка и нажав кнопку "Ввод!".


*Определитесь, кто Вы:
робот инопланетянин человек

Внимание! Время в таблицах - всемирное. Для получения местного времени необходимо прибавить поправку, которая равна 3 ч.

Смотрите также архив погоды в соседних городах и на ближайших метеорологических станциях:

Погода на Мысе Белый Нос (Ненецкий АО, Россия) (60 км)
Погода в Имени Федорова (Ненецкий АО, Россия) (124 км)
Погода в Усть-Каре (Ненецкий АО, Россия) (139 км)
Погода в Варандее (Ненецкий АО, Россия) (179 км)
Погода в Марресале (Ямало-Ненецкий АО, Россия) (197 км)
Погода в Воркуте (Коми, Россия) (271 км)
Погода на Мысе Константиновском (Ненецкий АО, Россия) (279 км)
Погода в Хорей-Вере (Ненецкий АО, Россия) (300 км)
Погода в Елецкой (Коми, Россия) (318 км)
Погода в Ходоварихе (Ненецкий АО, Россия) (325 км)

Пояснения к столбцам:

Ветер - указаны скорость ветра в м/с - средняя за 10 мин, порывы в срок и между сроками (в фигурных скобках) и направление, откуда дует ветер: С - северный, СВ - северо-восточный, В - восточный, ЮВ - юго-восточный, Ю - южный, ЮЗ - юго-западный, З - западный, СЗ - северо-западный.
Видимость - горизонтальная дальность видимости в метрах или километрах. При видимости от 1 до 10 км при отсутствии осадков обычно наблюдается дымка, при ухудшении видимости до 1 км и менее - туман. В сухую погоду видимость может ухудшаться дымом, пылью или мглою.
Явления - указаны атмосферные явления, наблюдавшиеся в срок или в последний час перед сроком; фигурными скобками обозначены явления, наблюдавшиеся между сроками (за 1-3 часа до срока); квадратными скобками обозначены град или гололедные отложения с указанием их диаметра в мм.
Облачность - указаны через наклонную черту общая и нижняя облачность в баллах и высота нижней границы облаков в метрах; квадратными скобками обозначены формы облаков: Ci - перистые, Cs - перисто-слоистые, Cc - перисто-кучевые, Ac - высококучевые, As - высокослоистые, Sc - слоисто-кучевые, Ns - слоисто-дождевые, Cu - кучевые, Cb - кучево-дождевые. Подробнее классификацию облаков см. в Атласе облаков (PDF).
T - Температура воздуха - температура, измеренная на высоте 2 м над землей.
Td - Температура точки росы - температура, при понижении до которой содержащийся в воздухе водяной пар достигнет насыщения.
f - Относительная влажность воздуха - влажноcть воздуха, измеренная на высоте 2 м над землей.
Te - Эффективная температура - температура, которую ощущает одетый по сезону человек в тени. Характеристика душности погоды. При расчете учитывается влияние влажности воздуха и скорости ветра на теплоощущения человека.
Tes - Эффективная температура на солнце - температура, которую ощущает человек, с поправкой на солнечный нагрев. Характеристика знойности погоды. Зависит от высоты солнца над горизонтом, облачности и скорости ветра. Ночью, в пасмурную погоду, а также при ветре 12 м/с и более поправка равна нулю.
P - Атмосферное давление - приведенное к уровню моря атмосферное давление.
Po - Атмосферное давление - измеренное на уровне метеостанции атмосферное давление.
Tmin - Минимальная температура - минимум температуры воздуха на высоте 2 м над землей.
Tmax - Максимальная температура - максимум температуры воздуха на высоте 2 м над землей.
R - Количество осадков - Количество выпавших осадков за период времени, мм. При наведении курсора мыши на число - период времени, за который выпало указанное количество осадков.
R24 - Количество осадков - Количество выпавших осадков за 24 часа, мм.
S - Снежный покров - Высота снежного покрова, см. При наведении курсора мыши на число - состояние снежного покрова и степень покрытия местности в баллах.